sat.trackr.live / text

‹ back to catalog

BANDWAGON-2 OBJECT U

NORAD 62395 · 2024-247U

PAYLOAD ACTIVE UNKNOWN

§ Identity

Operator
Country
TBD
Launch date
2024-12-21
Launch site
AFWTR
Launch vehicle
Mass (kg)
RCS (m²)

External: N2YO · Heavens-Above · Gunter

§ Orbital elements

Epoch: 2026-09-21T18:02:49.737984Z

Period
92.64 min
Inclination
44.9906°
Eccentricity
0.0005353
Mean motion
15.54426501 rev/d
Perigee alt
400.2 km
Apogee alt
407.5 km
Semi-major
6,782.0 km
B*
5.4919e-4
RAAN
69.8154°
Arg perigee
238.1051°
Mean anomaly
121.9322°
Rev number
9,839

§ Raw data

BANDWAGON-2 OBJECT U1 62395U 24247U   26264.75196456  .00036745  00000+0  54919-3 0  99922 62395  44.9906  69.8154 0005353 238.1051 121.9322 15.54426501 98390

JSON: /api/v1/satellites/62395 · /tle

For live sub-satellite position, see the globe view (requires WebGL).

§ Visibility from observer

Set your observer location to see the next 7 days of passes ≥ 10°. The values pass through the URL so the page stays shareable.

No JS? Fill the form by hand. The geolocation button needs JavaScript.